Date,TemperatureHighF,TemperatureAvgF,TemperatureLowF,DewpointHighF,DewpointAvgF,DewpointLowF,HumidityHigh,HumidityAvg,HumidityLow,PressureMaxIn,PressureMinIn,WindSpeedMaxMPH,WindSpeedAvgMPH,GustSpeedMaxMPH,PrecipitationSumIn
2013-1-1,42.0,32.3,17.9,29.9,18.8,4.4,78,58,41,29.81,29.57,8,3,20,0.01
2013-1-2,33.9,20.3,8.7,16.6,8.1,-5.0,72,59,47,29.98,29.77,8,2,15,0.00
2013-1-3,29.8,16.2,4.4,9.5,-1.1,-7.0,66,47,26,30.02,29.87,5,2,11,0.00
2013-1-4,41.7,31.0,19.0,26.0,21.7,9.5,81,69,51,29.88,29.68,9,2,17,0.00
2013-1-5,48.0,34.9,23.7,28.6,22.5,16.4,84,62,38,30.16,29.72,7,2,14,0.00
2013-1-6,48.3,35.3,23.7,33.4,28.0,19.5,96,76,53,30.11,29.82,8,1,14,0.00
2013-1-7,45.8,34.8,26.0,35.3,29.6,25.5,99,82,57,30.30,29.83,5,1,11,0.00
2013-1-8,49.8,39.2,30.9,32.8,31.1,28.3,99,74,50,30.26,30.14,9,2,17,0.00
2013-1-9,45.1,37.6,24.9,39.1,32.2,24.7,99,82,58,30.29,29.87,11,2,23,0.00
2013-1-10,51.9,42.9,33.2,31.2,27.8,25.0,73,56,42,30.42,29.89,11,3,25,0.01
2013-1-11,47.3,36.8,26.6,39.6,32.2,23.8,99,84,60,30.42,30.13,4,1,8,0.07
2013-1-12,46.9,43.1,39.2,46.6,42.9,38.9,99,99,99,30.13,30.01,6,1,9,0.02
2013-1-13,52.5,47.6,43.3,52.2,47.3,43.0,99,99,99,30.04,29.87,5,2,10,0.01
2013-1-14,68.0,53.8,41.7,59.8,46.5,29.7,99,78,50,30.13,29.72,8,2,17,0.00
2013-1-15,44.4,38.8,33.0,30.8,28.2,25.2,74,66,57,30.20,30.10,4,1,7,0.00
2013-1-16,34.5,32.8,30.0,34.2,30.9,24.7,99,93,68,30.14,29.70,2,0,5,0.09
2013-1-17,45.3,36.0,28.7,37.3,29.9,13.8,99,80,53,29.98,29.70,8,1,13,0.22
2013-1-18,28.7,23.3,16.3,13.3,5.2,-3.0,52,45,37,30.16,29.95,4,2,9,0.00
2013-1-24,15.8,13.5,10.5,-13.0,-13.7,-15.0,32,27,24,30.09,30.00,8,4,17,0.00
2013-1-25,10.4,8.7,8.0,-10.0,-11.1,-13.0,42,38,32,30.16,30.08,6,3,14,0.00
2013-1-27,30.3,23.5,17.9,-1.0,-3.0,-4.0,37,30,25,30.36,30.25,5,2,12,0.00
2013-1-28,31.4,25.2,17.0,29.0,11.8,-3.0,99,61,30,30.35,29.91,5,1,11,0.00
2013-1-29,37.0,30.8,25.1,34.0,29.9,24.9,99,97,88,30.09,29.91,2,0,5,0.11
2013-1-30,62.2,50.0,34.3,61.9,49.7,34.0,99,99,99,30.05,29.36,13,4,22,0.13
2013-1-31,61.5,48.7,30.7,61.2,40.4,18.2,99,75,40,29.46,28.84,17,7,41,0.56
2013-2-1,38.3,29.6,22.2,19.7,9.9,4.0,65,44,30,29.95,29.46,11,4,21,0.00
2013-2-2,33.9,25.8,16.5,11.7,7.0,2.8,59,45,30,30.14,29.93,8,2,13,0.00
2013-2-3,28.2,25.0,21.9,23.9,21.5,11.7,99,87,53,29.94,29.60,5,1,9,0.00
2013-2-4,33.9,26.1,20.6,23.0,12.4,4.6,98,59,36,29.82,29.59,12,4,23,0.00
2013-2-5,31.1,25.5,20.6,26.5,13.2,5.8,99,61,43,29.92,29.82,5,2,10,0.00
2013-2-6,44.0,31.7,24.8,35.0,22.5,8.3,99,72,43,30.17,29.81,8,2,16,0.06
2013-2-7,37.4,25.1,16.5,20.5,3.4,-4.0,73,40,21,30.43,30.18,5,2,11,0.00
2013-2-8,33.6,29.8,19.7,32.8,28.3,19.5,99,94,74,30.39,29.49,15,6,29,0.01
2013-2-9,22.2,17.7,13.1,22.0,17.4,12.8,99,99,99,30.05,29.42,15,5,23,0.00
2013-2-10,50.7,25.4,9.8,28.2,14.6,7.0,99,68,25,30.28,30.05,4,1,10,0.01
2013-2-11,43.3,32.5,17.2,43.0,30.9,13.9,99,94,81,30.24,29.48,9,1,17,0.22
2013-2-12,50.3,40.1,35.0,36.6,33.2,29.9,99,78,53,29.75,29.46,13,4,21,0.02
2013-2-13,52.1,38.4,30.0,31.9,29.1,25.9,95,71,43,29.75,29.57,4,2,11,0.00
2013-2-14,52.8,38.5,30.3,31.7,28.0,22.7,95,68,36,29.88,29.58,6,2,11,0.00
2013-2-15,54.5,40.9,31.8,40.3,35.5,26.8,99,83,55,29.89,29.79,9,2,16,0.00
2013-2-16,41.5,35.0,30.5,37.7,32.2,23.1,99,90,68,29.83,29.59,6,2,12,0.02
2013-2-17,32.3,22.2,16.5,24.0,13.9,2.8,99,73,49,29.59,29.22,13,6,28,0.01
2013-2-18,34.5,24.0,14.5,7.7,2.6,-1.0,57,41,24,30.03,29.52,10,5,26,0.00
2013-2-19,47.3,37.3,22.2,42.7,25.4,3.7,99,65,37,30.04,29.45,6,2,13,0.30
2013-2-20,42.4,33.9,26.7,42.1,24.1,13.3,99,69,44,29.65,29.40,12,4,20,0.01
2013-2-21,36.1,28.3,24.6,18.3,15.5,12.4,74,59,42,30.05,29.64,8,3,17,0.00
2013-2-22,42.9,33.3,23.7,29.0,24.3,18.0,86,71,48,30.28,30.06,7,2,11,0.00
2013-2-23,39.9,36.2,32.7,36.0,33.1,28.0,99,89,81,30.24,29.82,9,2,15,0.19
2013-2-24,38.4,34.4,30.0,38.2,34.2,29.7,99,99,99,29.82,29.57,9,2,15,0.45
2013-2-25,50.0,36.9,28.9,44.6,32.9,28.6,99,87,55,30.14,29.77,4,1,8,0.11
2013-2-26,48.9,37.4,28.0,42.9,33.5,27.7,99,87,64,30.24,30.06,8,2,16,0.00
2013-2-27,41.9,40.3,38.4,41.6,39.9,36.0,99,99,89,30.07,29.42,15,5,26,1.43
2013-2-28,56.3,40.8,34.1,48.0,38.7,33.9,99,93,65,29.53,29.40,3,1,7,0.01
2013-3-1,42.0,37.7,35.0,38.3,34.9,32.0,99,90,79,29.56,29.41,4,1,8,0.00
2013-3-2,52.5,39.5,31.4,37.2,32.1,29.2,94,76,54,29.56,29.49,4,1,8,0.00
2013-3-3,49.1,37.7,32.1,38.7,33.3,29.3,97,84,67,29.52,29.43,4,2,8,0.00
2013-3-4,42.9,35.4,30.7,32.2,27.7,25.1,99,74,54,29.60,29.44,9,4,20,0.00
2013-3-5,47.1,37.3,30.5,38.4,31.7,25.1,99,81,61,29.96,29.60,6,2,11,0.00
2013-3-6,42.0,37.8,35.4,39.1,36.5,32.7,99,95,80,30.02,29.93,13,5,24,0.13
2013-3-7,36.8,32.9,30.7,34.3,32.2,30.4,99,97,85,29.97,29.87,10,6,22,0.13
2013-3-8,42.4,34.4,29.4,38.0,30.4,25.6,99,87,58,30.03,29.81,11,5,17,0.07
2013-3-9,50.5,37.6,27.1,36.7,30.1,24.6,99,76,57,30.25,30.03,8,2,17,0.00
2013-3-10,44.7,35.2,25.5,39.1,32.9,25.2,99,92,73,30.31,30.21,8,2,12,0.00
2013-3-11,53.0,43.0,35.6,44.6,40.0,35.3,99,90,68,30.23,30.04,10,3,15,0.00
2013-3-12,52.7,46.7,42.0,52.4,46.4,41.8,99,99,99,30.05,29.61,9,3,15,0.19
2013-3-13,58.1,47.6,36.3,52.0,37.0,21.2,99,70,38,29.67,29.57,6,2,14,0.01
2013-3-14,41.9,33.3,23.0,27.1,18.0,6.8,75,54,39,29.70,29.57,11,3,18,0.00
2013-3-15,44.2,31.5,18.8,30.5,13.3,4.4,82,49,24,29.74,29.50,9,3,20,0.00
2013-3-16,46.9,35.5,27.8,29.6,17.5,9.9,80,50,27,29.77,29.54,8,2,12,0.00
2013-3-17,42.8,32.3,23.5,19.6,10.8,2.5,69,42,23,30.22,29.77,7,2,14,0.00
2013-3-18,39.2,29.2,17.0,29.5,11.7,0.0,99,49,26,30.36,30.16,8,2,14,0.00
2013-3-19,35.9,32.4,26.6,35.7,32.2,26.3,99,99,99,30.16,29.47,12,5,24,0.45
2013-3-20,42.2,32.7,24.9,30.1,24.9,20.2,99,75,48,29.70,29.56,10,2,23,0.06
2013-3-21,40.8,32.2,26.4,31.0,25.3,20.2,99,77,50,29.71,29.49,5,1,9,0.00
2013-3-22,46.7,36.4,29.3,29.7,24.3,19.3,99,64,36,29.61,29.48,8,2,16,0.00
2013-3-23,47.4,37.3,27.8,26.6,22.6,19.4,82,57,36,29.64,29.49,11,4,27,0.00
2013-3-24,56.3,40.5,31.2,34.9,28.3,22.3,93,64,36,29.69,29.61,6,2,13,0.00
2013-3-25,47.4,37.9,30.9,40.6,34.9,28.8,99,89,76,29.67,29.41,8,2,14,0.00
2013-3-26,56.1,43.2,32.0,36.6,28.7,22.4,99,62,33,29.65,29.41,8,2,14,0.02
2013-3-27,59.5,45.0,32.7,37.6,29.0,23.9,89,56,33,29.75,29.61,7,2,12,0.00
2013-3-28,52.5,44.0,36.8,41.6,37.1,32.7,99,78,52,29.90,29.74,5,2,10,0.02
2013-3-29,62.9,47.2,37.7,43.9,37.4,33.6,87,70,38,29.92,29.85,5,2,9,0.05
2013-3-30,59.9,47.3,35.9,38.2,34.3,27.9,88,63,34,29.99,29.89,7,2,14,0.00
2013-3-31,60.6,46.1,28.2,43.6,34.5,27.7,99,69,33,30.01,29.65,11,3,28,0.00
2013-4-1,63.3,48.4,35.7,55.6,40.9,15.4,99,78,42,29.66,29.36,11,4,19,0.19
2013-4-2,42.6,36.2,30.0,17.5,14.1,9.1,52,40,28,29.82,29.66,14,4,27,0.01
2013-4-3,50.1,39.1,30.3,16.9,13.7,7.2,53,37,19,30.03,29.80,11,4,24,0.00
2013-4-4,59.7,44.2,29.4,31.7,20.4,13.4,59,41,18,30.18,29.93,8,3,14,0.00
2013-4-5,61.5,47.2,39.2,41.6,31.2,25.8,73,55,32,29.94,29.51,9,3,16,0.00
2013-4-6,51.0,39.8,31.4,25.5,13.1,4.5,61,36,16,30.23,29.75,8,2,16,0.00
2013-4-7,54.5,43.6,28.2,45.4,33.2,21.9,99,70,33,30.23,29.89,15,4,29,0.00
2013-4-8,69.2,53.4,45.3,49.6,45.4,41.8,99,77,42,30.00,29.82,8,3,13,0.00
2013-4-9,76.6,53.5,44.2,58.6,49.1,43.9,99,88,47,29.99,29.73,8,2,15,0.08
2013-4-10,59.1,49.6,45.1,52.9,47.9,44.8,99,94,75,29.91,29.76,6,2,11,0.19
2013-4-11,55.0,46.2,42.0,48.8,43.0,34.1,99,89,62,30.04,29.71,8,2,13,0.08
2013-4-12,42.8,39.6,37.4,41.6,37.6,33.3,99,93,77,30.08,29.66,13,4,22,0.44
2013-4-13,55.9,41.8,35.6,45.6,40.3,35.3,99,95,67,29.82,29.63,7,2,14,0.04
2013-4-14,58.4,48.3,40.1,47.1,37.7,30.7,99,70,41,30.10,29.80,8,2,16,0.00
2013-4-15,56.8,45.7,33.8,43.8,39.0,33.0,99,79,48,30.29,30.10,8,2,14,0.00
2013-4-16,66.0,53.3,41.0,56.8,46.5,39.4,99,80,52,30.31,29.94,13,5,21,0.00
2013-4-17,72.5,60.6,46.7,58.5,44.6,33.6,99,60,29,30.22,29.94,9,2,15,0.00
2013-4-18,58.2,50.9,41.5,47.9,39.7,31.9,89,67,39,30.34,30.04,11,4,20,0.00
2013-4-19,78.4,63.9,51.4,69.6,61.6,47.9,99,93,70,30.05,29.54,14,5,25,0.00
2013-4-20,65.8,55.8,45.5,65.5,45.8,27.9,99,73,45,30.09,29.47,11,3,21,0.48
2013-4-21,57.3,44.8,34.5,33.9,27.6,21.4,85,52,29,30.58,30.09,8,2,15,0.00
2013-4-22,51.8,43.1,32.9,41.2,36.0,29.7,99,78,46,30.68,30.50,9,3,17,0.00
2013-4-23,42.9,41.7,39.7,42.7,40.5,35.8,99,96,82,30.50,30.01,7,3,14,0.07
2013-4-24,70.1,53.8,42.6,61.3,50.3,42.3,99,89,66,30.02,29.68,9,3,21,0.02
2013-4-25,73.0,57.2,43.8,56.2,44.8,37.1,99,68,29,30.16,29.71,10,3,21,0.02
2013-4-26,58.1,49.9,42.8,46.2,40.2,34.5,99,72,44,30.33,30.15,9,2,15,0.00
2013-4-27,63.6,53.5,40.2,54.5,40.8,32.3,99,66,35,30.32,30.19,8,2,13,0.00
2013-4-28,64.5,55.4,41.9,50.2,43.6,35.2,97,66,48,30.24,30.13,10,2,15,0.00
2013-4-29,67.6,57.9,46.7,53.6,42.6,23.3,99,60,25,30.17,30.08,10,3,18,0.00
2013-4-30,70.1,57.1,44.0,49.3,36.1,25.1,89,51,20,30.27,30.14,7,2,12,0.00
2013-5-1,67.8,55.2,39.0,49.0,44.3,37.3,99,70,37,30.38,30.27,8,2,12,0.00
2013-5-2,80.4,56.8,43.7,57.7,47.9,42.8,99,77,34,30.39,30.27,10,2,15,0.00
2013-5-3,63.6,50.6,40.8,53.1,45.6,40.5,99,84,62,30.43,30.27,7,1,12,0.00
2013-5-4,57.9,48.3,38.8,52.3,43.9,38.5,99,86,67,30.28,30.22,8,2,14,0.00
2013-5-5,61.3,49.3,36.1,53.5,44.0,35.8,99,84,62,30.24,30.16,9,2,15,0.00
2013-5-6,59.5,49.8,40.1,54.5,48.5,39.8,99,96,80,30.20,30.05,7,2,11,0.00
2013-5-7,71.6,61.4,45.3,65.4,56.9,45.0,99,86,61,30.07,29.99,6,2,11,0.00
2013-5-8,70.5,59.1,53.6,67.1,58.6,53.3,99,98,89,30.12,29.94,7,2,10,0.05
2013-5-9,66.5,58.3,54.1,66.2,58.0,53.8,99,99,99,29.95,29.77,4,1,8,0.48
2013-5-10,77.0,62.7,55.4,71.6,61.2,55.1,99,95,74,29.84,29.77,5,1,10,0.01
2013-5-11,74.1,65.0,59.5,69.6,64.0,59.2,99,97,83,29.79,29.57,10,3,19,0.02
2013-5-12,76.1,63.2,51.4,69.0,55.7,33.0,99,80,42,29.68,29.43,8,2,19,0.07
2013-5-13,67.1,53.8,42.2,39.4,34.4,29.8,81,49,31,29.91,29.68,8,2,19,0.00
2013-5-14,65.6,53.6,41.3,42.6,35.1,30.4,81,52,32,29.94,29.84,4,1,11,0.00
2013-5-15,66.9,55.6,39.5,58.3,44.1,33.2,99,69,33,29.95,29.55,10,2,20,0.00
2013-5-16,85.8,70.8,53.0,56.2,49.3,38.9,99,53,27,29.68,29.49,12,3,22,0.00
2013-5-17,74.1,61.4,51.0,50.7,47.3,43.5,88,61,42,30.10,29.68,5,1,12,0.00
2013-5-18,78.2,60.4,43.5,58.4,51.6,43.2,99,76,35,30.20,30.09,8,1,13,0.00
2013-5-19,73.0,57.1,48.3,62.4,54.7,48.1,99,93,62,30.24,30.12,7,2,14,0.09
2013-5-20,89.4,66.8,55.0,75.5,64.2,54.7,99,92,62,30.12,29.79,5,1,10,0.09
2013-5-21,71.4,58.4,51.4,69.6,58.1,51.1,99,99,90,29.93,29.77,4,1,9,0.00
2013-5-22,62.0,54.9,50.5,61.7,54.6,50.2,99,99,99,29.96,29.77,6,1,11,0.38
2013-5-23,78.4,64.0,53.7,77.4,63.5,53.5,99,99,92,29.82,29.69,8,2,15,0.05
2013-5-24,73.4,63.8,52.5,73.0,63.5,52.2,99,99,99,29.69,29.52,5,1,11,0.66
2013-5-25,57.2,49.9,42.6,56.9,49.6,42.3,99,99,99,29.69,29.55,6,1,12,0.37
2013-5-26,62.4,50.1,40.2,51.4,44.2,40.0,99,82,57,29.96,29.57,7,2,20,0.09
2013-5-27,79.5,61.8,43.7,52.0,45.8,41.7,99,62,30,30.07,29.94,6,1,14,0.00
2013-5-28,72.3,59.2,43.7,58.3,51.9,43.4,99,81,40,30.14,30.05,6,1,10,0.00
2013-5-29,71.6,60.9,57.0,71.3,60.6,56.7,99,99,99,30.08,29.86,4,1,8,0.62
2013-5-30,94.6,79.5,62.0,79.3,71.8,61.7,99,80,53,29.94,29.85,8,2,13,0.01
2013-5-31,99.8,86.7,69.2,80.2,74.2,68.9,99,70,45,29.96,29.78,7,2,15,0.00
2013-6-1,97.5,85.5,71.4,76.9,73.6,69.5,96,70,47,29.83,29.70,8,2,15,0.00
2013-6-2,91.7,81.1,71.6,78.7,74.8,71.3,99,83,61,29.74,29.58,10,3,18,0.00
2013-6-3,79.3,71.2,64.4,76.8,69.1,51.8,99,94,62,29.72,29.62,6,2,14,0.33
2013-6-4,78.8,67.6,53.6,55.6,51.2,46.2,81,57,42,29.98,29.69,7,1,16,0.00
2013-6-5,80.0,65.8,52.3,59.2,53.2,47.2,94,66,39,30.07,29.97,6,1,11,0.00
2013-6-6,78.6,65.3,55.7,62.4,57.0,51.9,99,76,55,30.08,29.99,5,2,11,0.00
2013-6-7,59.1,56.3,54.1,58.8,56.0,53.8,99,99,99,30.01,29.69,4,2,8,2.27
2013-6-8,84.7,65.9,53.4,73.1,62.9,53.1,99,91,67,29.87,29.48,8,2,15,0.51
2013-6-9,86.9,73.5,58.2,68.5,63.5,57.9,99,74,48,30.03,29.86,4,1,15,0.00
2013-6-10,71.2,63.1,57.9,67.5,61.3,57.6,99,94,77,30.10,29.91,6,1,10,0.48
2013-6-11,66.5,59.4,55.4,66.2,59.1,55.1,99,99,99,29.93,29.45,7,1,16,1.07
2013-6-12,74.6,63.1,56.1,67.5,61.2,55.6,99,94,70,29.68,29.43,6,1,15,0.06
2013-6-13,78.4,60.5,53.9,68.2,58.3,53.6,99,93,63,29.69,29.56,4,1,8,0.54
2013-6-14,84.2,64.4,51.9,69.2,59.1,51.7,99,85,55,29.63,29.52,7,1,13,0.73
2013-6-15,87.2,72.7,58.6,62.3,57.4,51.4,98,63,33,29.81,29.63,8,1,13,0.00
2013-6-16,81.6,71.0,58.4,70.0,59.8,52.9,99,70,44,29.81,29.58,6,2,12,0.00
2013-6-17,91.0,72.7,61.7,71.6,66.3,61.4,99,84,43,29.78,29.64,7,2,15,0.41
2013-6-18,80.0,65.3,58.6,75.6,63.4,58.3,99,94,74,29.82,29.75,4,1,8,0.19
2013-6-19,80.0,67.4,56.4,70.4,57.8,52.6,99,74,46,30.02,29.78,5,1,10,0.04
2013-6-20,82.0,69.3,51.0,66.3,60.6,50.8,99,76,46,30.14,30.02,6,1,9,0.00
2013-6-21,89.6,73.2,61.7,73.9,66.9,60.3,99,82,54,30.13,30.07,7,2,11,0.00
2013-6-22,91.2,76.6,64.9,73.3,67.9,62.7,99,77,51,30.10,29.97,6,2,14,0.00
2013-6-23,95.5,81.1,67.1,82.3,73.0,62.7,97,77,64,30.03,29.85,8,2,14,0.00
2013-6-24,100.4,83.7,70.7,82.7,77.2,70.4,99,83,56,29.88,29.72,9,2,13,0.33
2013-6-25,96.6,82.8,70.8,81.3,76.0,70.5,99,82,55,29.78,29.58,8,2,15,0.00
2013-6-26,95.0,75.9,64.9,81.9,73.7,64.6,99,94,64,29.73,29.57,5,1,8,0.31
2013-6-27,74.3,65.4,61.5,73.9,65.1,61.2,99,99,99,29.75,29.63,4,1,8,0.02
2013-6-28,82.4,71.1,60.9,81.9,70.7,60.6,99,99,96,29.65,29.36,8,2,15,0.30
2013-6-29,86.5,76.4,69.6,82.0,74.7,69.3,99,95,77,29.58,29.38,10,2,17,0.00
2013-6-30,87.2,78.5,70.7,82.8,77.1,70.4,99,96,85,29.81,29.58,8,2,17,0.00
2013-7-1,83.6,74.8,71.7,83.3,74.5,71.4,99,99,99,29.95,29.80,5,1,12,0.57
2013-7-2,84.0,72.3,61.1,83.7,71.9,60.8,99,99,93,30.10,29.94,4,1,8,0.00
2013-7-3,93.3,78.4,60.8,84.4,75.2,60.5,99,91,72,30.08,29.98,8,2,14,0.00
2013-7-4,97.7,86.7,75.0,86.0,81.5,74.7,99,86,65,30.06,29.93,8,2,15,0.00
2013-7-5,99.6,89.1,78.2,86.9,82.6,77.9,99,83,59,30.01,29.87,8,2,14,0.00
2013-7-6,97.3,87.3,78.8,85.3,79.9,70.3,99,81,59,29.92,29.81,7,2,12,0.00
2013-7-7,98.4,84.2,75.0,83.7,76.3,69.4,99,79,51,29.87,29.77,4,1,10,0.00
2013-7-8,94.4,79.3,66.2,87.8,77.4,65.9,99,94,79,29.95,29.76,5,1,9,0.00
2013-7-9,78.4,69.6,65.8,77.2,69.2,65.5,99,99,93,29.99,29.92,4,0,7,0.00
2013-7-10,87.8,74.6,66.7,85.1,74.1,66.4,99,98,87,29.96,29.65,6,2,14,0.00
2013-7-11,86.1,78.6,71.6,82.8,77.8,71.3,99,98,84,29.79,29.63,6,1,13,0.04
2013-7-12,85.1,72.6,67.4,72.2,68.8,65.3,99,89,63,30.07,29.78,6,1,11,0.01
2013-7-13,79.5,71.1,66.2,77.4,70.6,65.9,99,98,89,30.19,30.07,5,1,9,0.00
2013-7-14,98.2,80.7,68.3,86.4,77.8,68.0,99,92,64,30.17,30.07,6,1,10,0.00
2013-7-15,100.5,84.1,72.1,87.3,78.4,71.8,99,85,59,30.07,29.96,4,1,7,0.00
2013-7-16,102.2,84.6,72.1,84.9,77.9,71.8,99,82,56,30.04,29.97,6,1,11,0.00
2013-7-17,94.8,84.2,71.6,84.5,79.7,71.3,99,87,70,30.05,29.84,6,2,9,0.00
2013-7-18,98.4,83.7,76.4,87.5,79.7,76.1,99,89,65,29.88,29.80,6,2,11,0.00
2013-7-19,101.6,89.6,74.4,87.7,82.4,74.1,99,82,55,29.81,29.54,8,2,19,0.00
2013-7-20,98.2,87.3,78.2,88.4,83.1,73.3,99,88,63,29.65,29.48,8,2,17,0.05
2013-7-21,86.5,76.1,69.9,78.5,71.8,67.1,99,87,66,29.87,29.65,8,2,12,0.00
2013-7-22,81.3,72.9,68.0,80.3,72.4,67.7,99,98,87,29.90,29.76,8,2,14,0.00
2013-7-23,82.9,73.1,68.9,82.6,72.7,68.6,99,99,99,29.76,29.39,6,1,13,0.33
2013-7-24,92.3,80.5,68.3,88.3,74.9,61.9,99,84,63,29.82,29.44,6,1,12,0.01
2013-7-25,68.1,62.9,60.6,65.1,60.8,57.6,99,93,79,29.99,29.82,3,0,8,0.20
2013-7-26,73.5,66.1,60.9,73.2,65.8,60.6,99,99,99,29.94,29.78,4,1,11,0.66
2013-7-27,88.3,75.9,61.8,78.7,70.9,61.5,99,86,60,29.92,29.85,5,2,11,0.01
2013-7-28,82.0,71.6,66.3,81.0,71.2,66.0,99,99,93,29.89,29.84,2,0,6,0.01
2013-7-29,82.9,71.9,66.9,82.6,71.4,66.6,99,98,82,29.91,29.83,5,1,8,0.02
2013-7-30,90.6,76.0,63.1,74.5,69.5,62.8,99,83,47,29.96,29.89,5,1,9,0.00
2013-7-31,89.9,75.0,62.2,74.2,68.9,61.9,99,83,52,30.01,29.91,7,1,10,0.00
2013-8-1,83.1,74.8,64.0,76.5,70.6,63.7,99,87,71,29.92,29.74,5,2,11,0.00
2013-8-2,88.5,74.9,64.9,79.6,69.3,64.6,99,85,52,29.76,29.64,7,1,13,0.45
2013-8-3,84.9,73.7,65.6,73.8,69.4,65.3,99,88,66,29.73,29.63,7,2,13,0.01
2013-8-4,89.6,73.1,62.4,72.8,65.9,61.5,99,81,50,29.75,29.62,5,1,13,0.08
2013-8-5,83.6,69.4,57.5,63.3,55.8,46.3,99,67,35,29.92,29.74,8,1,13,0.00
2013-8-6,84.3,68.7,51.8,66.6,58.5,49.5,99,73,46,30.03,29.92,7,1,10,0.00
2013-8-7,81.8,70.0,57.7,73.1,63.4,57.4,99,81,54,30.07,29.98,6,1,13,0.00
2013-8-8,85.6,73.6,66.3,80.6,72.0,62.0,99,95,85,30.02,29.86,7,2,12,0.04
2013-8-9,75.9,73.4,70.3,75.6,73.1,70.0,99,99,99,29.90,29.60,4,2,11,1.02
2013-8-10,92.6,78.3,64.4,78.1,69.7,60.8,99,77,48,29.88,29.63,9,2,20,0.01
2013-8-11,88.3,72.1,56.4,67.8,62.8,56.2,99,76,47,29.96,29.86,5,1,10,0.00
2013-8-12,91.9,75.0,59.3,71.6,65.8,59.0,99,77,45,29.90,29.78,5,1,10,0.00
2013-8-13,79.5,70.7,66.0,76.7,70.3,65.7,99,98,90,29.79,29.55,4,1,8,0.00
2013-8-14,82.4,70.6,62.2,67.1,62.3,57.0,99,77,52,29.83,29.52,8,2,17,0.00
2013-8-15,86.0,70.2,56.8,64.1,59.0,56.2,99,71,43,29.98,29.82,6,1,11,0.00
2013-8-16,88.5,72.4,57.2,66.5,61.9,56.9,99,73,42,30.06,29.97,6,1,13,0.00
2013-8-17,84.9,71.7,58.8,71.0,65.0,58.5,99,81,57,30.16,30.06,5,1,9,0.00
2013-8-18,84.9,72.5,61.8,75.4,67.9,61.5,99,86,65,30.15,29.95,4,1,8,0.00
2013-8-19,89.6,76.0,63.1,73.3,68.1,62.8,99,79,53,29.96,29.80,5,2,10,0.00
2013-8-20,94.1,78.3,66.0,78.0,71.7,65.7,99,82,54,29.95,29.83,6,1,8,0.00
2013-8-21,95.0,79.9,63.5,77.0,72.3,63.2,99,80,53,30.01,29.88,4,1,14,0.00
2013-8-22,93.0,80.1,68.9,79.7,74.5,68.6,99,85,54,29.89,29.67,8,2,13,0.00
2013-8-23,89.2,75.3,61.8,75.0,68.4,60.6,99,81,54,30.00,29.67,7,1,11,0.00
2013-8-24,81.6,68.0,54.3,63.6,54.5,47.2,99,66,38,30.20,29.99,4,1,10,0.00
2013-8-25,83.8,70.3,52.3,65.4,58.7,50.0,99,70,45,30.24,30.05,6,1,11,0.00
2013-8-26,86.3,75.1,67.8,75.6,69.8,62.1,99,84,67,30.05,29.72,7,2,15,0.00
2013-8-27,85.4,75.2,66.0,81.1,73.3,65.7,99,94,78,29.76,29.69,5,1,10,0.00
2013-8-28,82.9,69.7,61.3,77.3,68.7,61.0,99,97,81,29.86,29.73,6,1,10,0.00
2013-8-29,68.0,65.1,63.1,67.7,64.8,62.8,99,99,99,29.95,29.83,4,1,9,0.00
2013-8-30,90.8,74.7,63.1,77.0,70.5,62.8,99,88,62,29.90,29.67,7,1,13,0.00
2013-8-31,84.7,76.3,71.0,83.7,76.0,70.7,99,99,96,29.70,29.64,4,2,8,0.13
2013-9-1,83.6,74.5,70.5,83.3,74.2,70.2,99,99,99,29.75,29.64,6,1,10,0.17
2013-9-2,86.0,74.3,70.7,85.6,74.0,70.4,99,99,99,29.75,29.57,4,1,9,0.45
2013-9-3,88.1,77.0,68.0,83.1,75.0,65.8,99,94,73,29.67,29.54,6,1,12,0.00
2013-9-4,87.0,74.1,60.9,70.1,64.6,60.6,99,75,51,29.78,29.65,8,2,17,0.00
2013-9-5,70.8,64.9,52.1,67.5,62.6,51.8,99,93,75,30.02,29.72,6,1,10,0.04
2013-9-6,78.9,63.1,45.3,56.5,50.4,45.0,99,68,38,30.12,29.96,4,1,8,0.00
2013-9-7,87.0,69.2,53.0,62.8,56.4,50.5,95,67,40,29.97,29.71,7,2,11,0.00
2013-9-8,82.9,68.4,53.2,71.1,59.1,44.7,99,75,44,29.98,29.60,5,1,14,0.02
2013-9-9,76.6,61.4,44.9,56.1,49.9,44.6,99,69,39,30.12,29.97,5,1,12,0.00
2013-9-10,78.6,69.5,59.1,78.3,68.7,56.5,99,97,88,30.04,29.89,7,2,13,0.07
2013-9-11,102.3,85.4,69.4,87.7,79.2,69.1,99,84,54,29.94,29.78,8,2,15,0.00
2013-9-12,91.4,78.1,67.6,84.3,76.1,67.3,99,94,79,29.83,29.52,8,2,18,0.76
2013-9-13,82.4,69.5,59.9,80.6,68.9,59.6,99,98,84,29.61,29.42,4,0,8,0.21
2013-9-14,73.5,62.7,55.4,66.4,60.2,55.1,99,92,74,29.92,29.61,4,1,9,0.00
2013-9-15,78.2,63.6,49.6,63.7,55.9,49.3,99,78,51,30.03,29.92,6,1,11,0.00
2013-9-16,77.3,61.1,49.1,65.5,56.4,44.2,99,85,66,30.13,29.88,4,1,8,0.00
2013-9-17,73.9,55.4,38.8,51.9,45.6,38.5,99,73,44,30.31,30.12,4,0,11,0.00
2013-9-18,82.7,61.9,42.8,57.3,49.9,42.5,99,70,35,30.21,30.01,6,1,9,0.00
2013-9-19,81.8,65.0,49.4,66.6,58.6,49.1,99,82,52,30.02,29.91,4,1,7,0.00
2013-9-20,82.4,64.7,50.9,69.8,61.3,50.6,99,90,63,29.96,29.88,4,1,8,0.00
2013-9-21,79.5,67.2,53.6,71.5,64.9,53.3,99,93,72,29.91,29.61,7,2,13,0.00
2013-9-22,78.9,67.9,54.1,70.3,63.9,52.4,99,88,57,29.68,29.48,7,2,18,0.18
2013-9-23,71.4,54.7,47.3,52.8,48.1,44.2,98,80,51,29.87,29.69,4,1,11,0.00
2013-9-24,73.0,56.1,43.3,53.2,48.9,43.0,99,80,47,29.86,29.69,4,1,13,0.00
2013-9-25,72.5,57.9,44.4,58.0,52.4,44.1,99,84,53,29.86,29.75,6,1,9,0.00
2013-9-26,62.4,54.8,52.7,58.9,54.4,52.4,99,99,86,30.00,29.85,0,0,2,0.00
2013-9-27,75.7,62.0,52.3,62.8,57.1,52.0,99,86,55,30.14,30.00,4,0,8,0.00
2013-9-28,80.7,63.0,49.6,67.4,58.6,49.3,99,87,59,30.21,30.13,6,1,10,0.00